Temperature
19 19 19 19 19 19 19 19 19 19 19 19 19 19 19 19 19 19 18 18 18 19 19 19 19 19 18 18 19 19 19 19 19 19 19 19 19 19 19 19 18 18 19
19 19 20 19 19 19 19 19 19 19 19 19 19 19 19 18 18 18 18 18 18 18 19 19 19 18 18 18 18 19 19 19 19 19 19 19 19 19 19 19 19 19 19
19 19 19 19 19 19 19 18 18 18 18 18 19 19 18 18 18 18 18 18 18 19 18 19 18 18 18 18 18 18 18 18 19 18 18 18 18 19 18 19 19 19 19
19 18 18 19 19 19 19 18 18 18 18 18 18 18 18 18 18 18 18 18 18 19 18 18 18 18 18 18 18 18 18 18 18 18 18 18 18 19 19 18 18 18 18
18 18 18 19 19 19 19 19 18 18 18 18 18 18 18 18 18 18 18 18 18 18 18 18 18 17 18 18 18 18 18 18 18 18 18 18 18 19 19 18 18 18 18
18 18 18 19 19 19 19 19 18 18 18 18 18 19 18 18 18 17 17 17 18 18 18 18 17 17 17 17 18 18 18 18 18 18 18 18 18 19 18 18 18 18 18
19 18 18 19 19 19 18 18 18 18 18 18 18 18 18 18 18 17 17 17 18 18 18 18 17 17 17 17 17 18 18 18 17 17 18 18 18 18 18 18 18 18 18
19 18 18 19 19 18 18 18 18 18 18 18 18 18 18 18 18 17 17 17 18 18 18 17 17 17 17 17 17 17 18 18 17 17 17 18 18 18 18 18 18 18 18
18 18 18 18 18 18 18 18 18 18 18 18 18 18 18 18 17 17 17 18 18 18 18 17 17 17 17 17 17 17 17 17 17 17 17 17 17 18 18 18 18 18 18
18 18 18 18 18 18 18 18 18 18 18 18 18 18 18 17 17 17 17 18 18 18 18 17 17 17 17 17 18 18 17 17 16 16 17 17 18 18 18 18 18 18 18
19 19 19 18 18 18 17 18 18 18 18 18 18 18 17 17 16 16 16 18 18 17 17 17 17 17 17 17 17 17 17 16 16 16 16 17 17 18 18 18 18 18 18
20 19 19 19 18 18 17 18 18 17 17 17 17 17 17 17 16 16 17 17 17 17 17 16 16 17 16 17 17 17 16 16 16 16 16 17 17 17 17 18 18 18 18
21 20 19 19 19 18 18 18 18 18 17 17 17 16 17 16 16 16 16 16 16 16 16 16 16 16 17 16 16 16 16 16 16 16 16 17 17 17 17 17 17 17 17
21 20 19 19 19 18 18 18 17 17 17 17 17 17 17 17 16 16 16 16 16 16 16 16 16 16 16 17 17 17 16 16 16 16 17 17 17 17 17 17 17 17 17
21 20 20 19 19 19 18 18 17 17 17 17 17 17 17 17 17 16 16 16 16 16 16 16 17 16 16 16 16 16 16 16 16 16 16 16 16 16 17 17 16 16 17
22 21 20 20 19 19 18 18 18 17 17 17 17 17 17 17 17 16 17 16 16 16 16 16 16 16 16 16 16 15 16 15 15 15 16 16 16 16 16 16 16 16 16
22 21 20 20 20 19 19 18 18 18 17 17 17 16 16 17 17 16 17 16 16 16 16 16 16 16 16 15 15 15 15 15 15 15 15 16 16 16 16 16 16 16 16
22 21 21 20 20 19 19 19 18 18 18 17 17 16 16 17 17 16 16 16 16 16 16 16 16 16 16 16 15 15 15 15 15 15 15 15 16 15 16 16 16 16 16
22 21 21 20 20 19 19 19 18 18 18 17 17 17 16 16 17 16 16 16 16 16 16 16 16 16 16 15 15 15 15 15 14 15 15 15 15 15 15 16 16 16 16
22 21 21 20 19 19 18 18 18 18 18 17 17 17 17 16 16 16 16 16 16 16 16 16 16 16 15 15 15 15 14 14 14 14 14 15 15 15 15 16 15 16 16
22 21 20 20 19 18 18 18 18 18 18 18 17 17 17 17 16 16 16 16 16 16 16 16 15 15 15 15 15 14 14 14 14 14 14 14 15 15 15 15 15 15 15
22 21 20 20 19 18 18 18 18 18 18 18 17 17 17 17 16 16 16 16 16 16 16 16 15 15 15 15 15 15 15 14 13 14 14 14 15 15 15 15 15 15 15
21 21 21 20 19 18 18 18 18 18 18 18 18 17 17 17 17 16 16 15 16 16 16 16 16 15 15 15 16 16 16 16 15 14 14 14 14 15 15 15 15 15 15
20 20 20 19 18 18 18 18 18 18 17 17 17 17 17 17 17 16 16 15 15 16 16 16 16 16 15 15 15 16 17 17 16 15 14 14 14 14 14 15 14 14 14
20 20 19 19 18 18 17 17 17 17 17 17 17 16 16 16 16 16 16 16 15 16 16 16 16 16 15 15 15 15 15 16 17 17 16 15 14 14 14 14 14 14 14
20 20 19 19 18 18 18 17 16 16 16 16 16 16 16 16 16 16 16 16 16 16 16 16 16 16 15 15 15 15 15 16 16 17 17 16 15 15 14 14 14 14 14
Wind_Speed
9 13 14 12 12 11 12 12 12 12 12 12 12 12 11 11 12 12 12 12 11 11 12 11 11 10 7 5 6 6 8 8 8 9 9 9 8 6 5 5 3 4 5
12 14 15 13 12 11 12 13 13 13 13 12 12 12 12 12 13 13 12 11 10 10 10 11 11 10 7 6 5 6 7 7 7 8 7 8 7 6 6 5 3 6 5
12 13 15 12 12 11 11 13 14 14 13 13 12 12 12 12 13 13 12 11 10 9 10 11 11 8 8 7 8 7 7 7 6 5 2 5 8 7 6 6 6 6 6
12 12 13 12 11 11 11 12 13 13 13 12 12 12 11 11 12 12 12 11 10 9 9 10 9 8 9 9 10 10 10 8 6 1 2 4 6 8 6 6 7 7 7
11 11 12 12 11 11 11 12 13 13 12 12 12 12 11 11 12 12 12 11 10 9 9 9 9 8 9 10 10 11 11 10 6 2 4 3 5 7 5 5 7 7 6
11 10 11 11 11 11 11 13 14 14 13 13 12 11 11 11 12 12 12 11 11 10 9 7 7 7 8 10 10 11 10 7 5 6 5 4 6 6 5 5 5 6 6
10 9 11 10 10 10 11 13 14 14 14 13 12 11 12 12 12 12 12 12 11 9 9 7 6 6 9 9 10 10 8 5 6 6 7 7 8 7 6 5 5 6 6
9 9 10 11 9 10 11 13 14 14 14 13 13 12 12 12 13 12 12 12 10 10 9 8 8 10 10 9 9 9 7 5 5 5 7 9 10 9 7 7 7 7 6
8 8 8 11 11 10 11 13 14 14 13 13 13 12 12 12 13 12 13 12 11 10 10 10 11 11 10 9 9 8 7 5 3 4 4 7 9 9 9 8 7 7 7
8 8 8 9 10 11 12 13 14 14 14 13 13 13 13 13 13 13 13 12 12 11 11 12 12 11 10 9 8 6 2 3 4 3 4 8 7 7 8 8 7 6 6
8 8 8 9 9 10 11 13 14 14 14 14 13 14 14 13 13 12 13 13 12 12 12 12 12 11 9 9 7 3 2 3 4 5 7 7 5 6 7 7 6 5 5
11 10 8 8 10 10 10 12 12 12 13 12 11 12 10 10 9 11 15 13 12 12 12 12 11 8 3 7 6 3 4 4 4 6 9 7 5 6 6 6 5 5 5
11 10 9 9 9 9 8 9 8 9 10 11 12 11 8 9 9 10 11 13 11 11 10 11 8 5 6 6 5 6 6 5 6 7 9 9 7 7 6 6 6 5 4
11 11 10 10 10 9 8 7 7 7 8 8 10 11 9 7 7 8 8 9 9 7 6 7 6 6 6 7 7 8 8 7 8 8 11 10 8 8 9 9 9 9 8
11 12 12 12 11 10 8 7 7 6 7 8 8 10 10 7 8 8 8 8 8 8 7 6 6 6 7 7 8 9 9 10 11 11 13 17 14 12 11 11 11 11 11
12 12 12 13 12 11 10 9 8 7 7 8 8 10 10 9 8 8 9 9 8 7 6 7 7 6 6 6 8 9 9 10 11 11 11 16 21 18 16 14 13 12 12
10 11 12 13 13 13 12 11 8 8 8 8 8 11 11 10 10 10 9 10 9 9 8 7 8 6 6 6 7 7 8 8 9 10 10 10 13 19 20 19 17 15 13
10 11 12 12 14 14 13 11 9 9 8 8 9 10 11 12 12 10 9 9 9 9 8 7 8 7 7 6 6 6 6 6 8 8 8 9 9 9 14 18 19 18 17
11 11 12 14 14 14 14 12 10 9 8 8 9 9 11 12 13 11 9 9 11 8 7 8 8 8 8 6 6 4 5 6 6 6 8 9 9 8 8 11 14 17 17
10 11 11 12 13 13 11 11 9 9 9 8 8 10 12 12 13 11 9 11 11 8 7 8 9 8 7 7 6 5 4 4 5 6 6 7 8 9 9 7 7 10 15
5 6 7 9 11 10 9 9 9 9 8 7 8 11 12 12 12 9 7 11 11 10 10 11 9 10 9 8 7 6 4 3 4 4 4 5 7 8 8 9 8 7 7
2 2 4 6 8 10 9 8 6 7 7 8 8 9 12 13 10 8 8 8 10 10 11 12 11 10 9 9 8 7 5 4 3 3 3 3 5 6 6 7 8 8 7
3 4 4 5 7 9 9 6 5 5 5 6 7 8 10 13 12 9 9 9 11 11 11 13 14 14 11 11 9 6 5 4 5 5 4 4 3 3 4 4 5 6 6
5 5 5 6 7 8 9 8 9 7 7 7 6 7 10 13 13 14 14 12 13 12 12 13 15 14 12 12 10 7 4 3 4 5 6 6 5 4 3 3 2 3 4
6 5 5 6 6 6 7 6 7 6 5 4 5 6 8 10 12 15 16 14 15 13 14 14 14 15 13 12 11 9 7 4 6 4 6 7 7 6 5 3 3 2 3
6 6 6 6 6 6 5 5 6 5 5 5 5 5 5 6 8 12 14 14 14 12 12 11 12 15 13 14 13 11 9 7 7 6 4 7 7 7 7 5 4 3 2
Wind_Direction
158 159 151 162 156 151 153 154 153 148 142 137 134 134 135 136 136 130 120 111 103 96 91 82 71 69 70 82 98 105 108 106 98 95 103 114 120 120 120 124 164 120 101
152 157 155 164 158 151 152 156 156 152 147 143 138 136 136 136 136 132 122 111 101 93 87 81 72 66 69 79 99 110 113 107 97 90 105 120 116 111 114 117 57 79 95
150 155 160 165 159 153 154 159 161 158 154 150 146 139 136 137 138 133 126 115 105 97 89 82 76 74 76 79 89 97 101 97 90 94 188 130 119 114 118 117 104 97 94
151 157 159 160 162 157 158 161 162 161 158 154 148 141 138 137 136 132 126 116 108 104 99 94 93 97 91 84 82 85 88 91 91 187 187 102 115 109 117 115 108 101 96
150 157 153 164 165 162 163 162 160 160 157 151 146 142 141 137 133 131 127 120 112 108 106 104 103 102 94 87 83 82 84 88 95 102 82 87 91 105 112 109 106 102 100
150 157 154 168 168 167 168 164 160 158 155 149 146 146 143 136 131 131 128 122 116 113 112 110 105 99 100 92 85 82 79 79 95 72 72 81 93 101 100 100 110 108 102
152 156 153 166 171 171 171 165 161 159 156 150 147 145 140 136 132 131 128 122 117 117 118 116 110 111 110 94 82 76 73 61 76 76 67 67 78 88 88 89 97 104 103
147 154 151 160 173 172 168 164 161 160 156 150 146 140 136 135 132 130 126 120 119 121 120 113 110 111 108 93 79 68 49 356 87 76 71 74 71 75 78 83 85 89 94
145 153 156 160 167 170 166 164 161 159 155 150 146 140 136 135 133 128 122 123 127 127 121 115 111 109 103 90 81 73 60 8 51 70 76 73 68 69 71 77 79 78 83
156 162 163 162 161 163 165 165 161 158 155 150 144 141 137 134 133 131 130 129 131 126 122 120 112 108 98 87 81 75 71 249 66 93 77 80 72 70 70 71 75 78 81
169 171 167 163 161 161 162 159 161 156 154 151 147 145 151 152 146 151 124 132 127 119 120 122 112 107 109 100 85 86 250 76 77 63 64 76 83 80 76 72 72 79 83
176 176 176 170 165 165 162 159 166 161 161 164 156 159 167 152 152 129 127 134 124 120 124 121 121 140 162 107 118 187 82 79 71 67 64 57 80 88 85 80 77 78 83
177 175 180 177 174 168 166 167 168 163 167 169 166 167 172 154 153 146 150 147 142 151 134 138 156 101 84 78 81 83 71 67 66 65 66 56 66 76 82 81 77 75 81
182 182 182 184 178 179 175 173 175 169 173 174 177 176 175 171 170 162 165 157 157 151 142 145 119 102 91 93 90 89 84 73 69 64 64 64 71 76 77 74 68 63 65
188 190 187 190 187 183 182 180 187 184 177 180 183 186 184 179 183 171 171 165 168 157 154 148 138 107 95 84 79 81 82 78 81 77 69 65 67 72 77 79 76 72 68
198 197 192 194 192 189 187 190 193 186 183 187 189 199 192 187 188 182 175 171 170 165 160 157 137 125 111 97 89 83 79 79 80 83 81 71 63 60 64 68 70 71 71
208 207 200 200 197 197 197 194 193 196 189 188 195 202 199 193 191 191 182 178 173 170 166 159 140 131 120 118 107 92 81 71 73 76 76 74 72 62 55 56 58 61 65
222 220 211 205 206 202 200 197 196 200 194 186 196 205 206 201 196 191 188 185 179 177 168 160 159 152 145 143 130 110 98 86 73 76 79 78 71 71 64 53 51 53 58
237 231 223 216 213 207 203 202 200 201 196 188 195 201 209 211 201 190 194 190 185 188 178 173 171 163 157 152 138 126 105 88 82 78 78 76 77 71 74 72 63 52 48
244 242 235 224 221 211 204 207 200 207 205 196 195 197 204 215 212 197 197 200 193 189 188 183 176 170 164 165 154 139 118 109 95 79 79 80 80 75 70 63 70 67 53
234 240 232 224 215 206 199 201 199 205 209 210 205 202 195 202 212 207 213 212 203 196 195 192 183 175 174 171 160 151 140 129 105 107 92 92 87 81 83 74 62 53 63
188 196 202 201 200 198 198 202 205 202 212 216 213 204 195 189 192 202 215 227 218 212 206 199 187 184 179 187 185 171 161 159 169 147 133 106 103 95 79 75 74 64 51
148 157 168 178 185 191 186 184 183 182 194 203 208 202 196 187 180 189 211 226 234 224 213 203 193 190 187 198 203 198 193 178 160 176 174 172 137 122 107 77 74 70 61
134 139 150 164 176 182 185 197 206 210 216 222 213 202 200 195 194 198 209 219 229 230 222 209 203 198 192 196 207 229 243 161 176 166 193 197 188 184 160 141 108 84 71
127 125 132 147 160 174 193 206 225 234 233 225 215 209 204 199 204 207 212 215 221 223 224 215 207 202 198 200 201 203 205 197 232 190 173 185 195 203 194 185 171 126 84
136 132 136 142 143 159 178 196 211 211 212 208 211 213 209 204 210 214 213 214 214 212 215 211 206 206 205 205 207 205 203 206 219 214 191 180 187 186 191 194 203 178 150
Height
1512 1514 1514 1516 1518 1519 1521 1522 1523 1525 1526 1527 1528 1529 1530 1530 1531 1532 1533 1533 1533 1533 1533 1533 1533 1534 1534 1534 1534 1535 1535 1535 1535 1536 1537 1537 1538 1538 1538 1538 1538 1539 1538
1512 1514 1514 1517 1518 1520 1521 1522 1524 1525 1526 1527 1529 1530 1531 1531 1532 1533 1534 1534 1534 1534 1533 1533 1534 1535 1535 1535 1535 1535 1536 1536 1536 1537 1538 1538 1539 1539 1539 1539 1539 1539 1539
1513 1514 1515 1517 1519 1520 1521 1523 1524 1525 1527 1528 1529 1530 1531 1532 1533 1534 1534 1535 1534 1534 1534 1534 1535 1536 1536 1536 1536 1536 1536 1536 1537 1538 1539 1541 1539 1539 1539 1540 1540 1540 1540
1514 1515 1517 1517 1519 1520 1522 1523 1524 1526 1528 1529 1530 1531 1532 1533 1534 1535 1535 1535 1535 1535 1535 1536 1536 1537 1538 1537 1537 1537 1537 1537 1538 1539 1541 1541 1541 1540 1540 1541 1541 1541 1540
1515 1516 1517 1518 1519 1521 1522 1523 1525 1527 1528 1529 1531 1532 1533 1534 1535 1536 1536 1536 1536 1536 1537 1537 1538 1539 1539 1539 1538 1538 1538 1538 1539 1540 1540 1540 1540 1540 1541 1541 1541 1541 1541
1515 1517 1517 1518 1520 1521 1522 1524 1525 1527 1529 1530 1531 1532 1533 1534 1535 1536 1537 1537 1537 1538 1538 1539 1540 1540 1540 1540 1540 1539 1539 1539 1540 1540 1540 1540 1540 1541 1541 1541 1542 1542 1542
1517 1518 1518 1519 1521 1522 1523 1524 1526 1527 1529 1530 1532 1533 1534 1535 1536 1537 1537 1538 1538 1539 1539 1540 1541 1541 1541 1541 1541 1541 1540 1540 1541 1541 1541 1541 1541 1541 1541 1542 1542 1542 1543
1518 1518 1519 1519 1521 1522 1524 1525 1527 1528 1530 1531 1532 1534 1535 1536 1536 1537 1538 1539 1540 1540 1540 1541 1542 1542 1542 1542 1542 1541 1541 1541 1542 1543 1542 1542 1541 1542 1542 1542 1543 1543 1543
1518 1519 1520 1520 1521 1523 1524 1525 1527 1528 1530 1531 1533 1534 1536 1537 1537 1538 1538 1539 1540 1541 1542 1543 1543 1543 1543 1543 1543 1542 1542 1542 1544 1544 1544 1543 1542 1542 1543 1543 1543 1544 1544
1518 1519 1520 1522 1523 1524 1524 1526 1527 1529 1531 1532 1533 1535 1537 1537 1538 1539 1540 1540 1541 1542 1543 1544 1545 1545 1544 1544 1543 1542 1543 1543 1545 1545 1545 1544 1543 1543 1543 1544 1544 1544 1545
1518 1520 1521 1523 1523 1524 1526 1526 1528 1529 1531 1532 1534 1536 1537 1539 1540 1541 1541 1542 1543 1544 1545 1545 1546 1546 1545 1544 1544 1543 1543 1546 1545 1546 1545 1543 1543 1544 1544 1544 1544 1545 1545
1518 1519 1521 1523 1524 1525 1526 1527 1528 1529 1531 1533 1535 1536 1539 1541 1542 1543 1541 1543 1544 1545 1546 1546 1547 1547 1547 1547 1545 1545 1546 1546 1546 1546 1545 1544 1544 1544 1544 1545 1545 1545 1546
1518 1519 1521 1523 1524 1525 1526 1528 1529 1530 1531 1534 1536 1537 1539 1541 1542 1543 1544 1544 1546 1547 1549 1548 1549 1550 1550 1548 1548 1548 1546 1547 1547 1547 1545 1545 1545 1546 1545 1546 1546 1546 1546
1517 1518 1520 1522 1524 1525 1526 1527 1529 1530 1531 1533 1535 1537 1539 1541 1543 1544 1545 1546 1547 1549 1549 1551 1551 1551 1551 1551 1550 1550 1549 1548 1547 1547 1546 1546 1546 1546 1546 1546 1546 1546 1546
1515 1517 1519 1520 1523 1524 1525 1526 1528 1529 1530 1532 1533 1536 1538 1540 1542 1543 1545 1545 1547 1549 1550 1551 1552 1552 1552 1552 1551 1551 1550 1549 1549 1548 1547 1547 1547 1548 1548 1547 1547 1547 1547
1514 1516 1517 1518 1520 1522 1523 1525 1527 1528 1529 1530 1532 1534 1537 1539 1541 1542 1544 1545 1547 1548 1550 1551 1552 1552 1553 1553 1552 1552 1552 1551 1551 1550 1550 1549 1549 1549 1549 1549 1549 1549 1548
1513 1515 1516 1517 1518 1520 1522 1524 1525 1526 1528 1529 1530 1533 1536 1538 1540 1541 1544 1545 1546 1548 1550 1551 1552 1553 1554 1554 1554 1554 1553 1553 1553 1552 1552 1551 1551 1551 1551 1551 1551 1551 1550
1510 1512 1513 1514 1515 1517 1519 1521 1523 1525 1526 1527 1528 1531 1534 1537 1539 1541 1542 1544 1546 1547 1549 1550 1551 1553 1554 1555 1555 1555 1555 1553 1554 1554 1554 1553 1553 1553 1553 1553 1553 1553 1552
1506 1508 1510 1510 1512 1513 1515 1517 1520 1522 1523 1525 1526 1528 1531 1535 1537 1539 1540 1543 1544 1546 1548 1549 1551 1552 1554 1555 1556 1556 1556 1556 1555 1555 1555 1555 1554 1555 1555 1555 1555 1554 1554
1501 1503 1505 1506 1507 1509 1510 1513 1515 1517 1519 1521 1522 1524 1527 1531 1534 1537 1538 1541 1543 1543 1545 1547 1549 1551 1553 1554 1556 1556 1557 1557 1557 1556 1556 1556 1556 1556 1556 1556 1556 1555 1554
1497 1498 1500 1501 1502 1503 1504 1507 1510 1513 1515 1517 1519 1521 1523 1526 1529 1533 1535 1538 1539 1541 1542 1545 1547 1549 1551 1553 1555 1556 1557 1558 1558 1557 1558 1558 1557 1557 1558 1557 1557 1556 1556
1494 1495 1496 1497 1498 1499 1500 1502 1505 1509 1511 1513 1514 1516 1519 1521 1524 1527 1530 1533 1536 1538 1540 1542 1544 1547 1549 1551 1554 1555 1556 1558 1557 1557 1558 1558 1559 1558 1559 1559 1558 1558 1557
1492 1493 1494 1494 1495 1496 1497 1499 1502 1504 1507 1508 1510 1512 1514 1516 1519 1521 1524 1528 1531 1534 1536 1538 1540 1543 1546 1549 1552 1554 1555 1555 1557 1558 1558 1559 1558 1559 1559 1559 1560 1559 1559
1491 1491 1492 1492 1493 1494 1495 1497 1499 1502 1504 1506 1506 1507 1509 1511 1514 1516 1519 1522 1526 1529 1532 1535 1537 1539 1543 1546 1549 1551 1553 1554 1555 1557 1557 1558 1558 1559 1559 1559 1559 1559 1559
1489 1490 1491 1491 1492 1493 1494 1495 1497 1499 1501 1502 1503 1504 1505 1507 1509 1511 1514 1517 1520 1523 1527 1530 1533 1536 1539 1542 1545 1548 1550 1552 1553 1554 1555 1556 1557 1558 1558 1558 1558 1558 1558
1488 1489 1489 1490 1491 1492 1492 1493 1495 1497 1498 1499 1499 1500 1501 1502 1504 1505 1508 1511 1514 1517 1521 1525 1528 1532 1535 1538 1542 1545 1547 1550 1551 1552 1553 1554 1555 1556 1556 1556 1557 1556 1556